Change the Weather History Date:

Saturday, September 7, 2013

  Actual Average Record
Temperature  
Mean Temperature 78 °F -  
Max Temperature 84 °F 82 °F 96 °F (2007)
Min Temperature 73 °F 69 °F 68 °F (1996)
Cooling Degree Days 14    
Growing Degree Days 28 (Base 50)    
Moisture  
Dew Point 66 °F    
Average Humidity 64    
Maximum Humidity 78    
Minimum Humidity 43    
Precipitation  
Precipitation 0.00 in 0.00 in - ()
Sea Level Pressure  
Sea Level Pressure 29.94 in    
Wind  
Wind Speed 6 mph ()    
Max Wind Speed 14 mph    
Max Gust Speed -    
Visibility 6.1 miles    
Events      
Averages and records for this station are not official NWS values.
T = Trace of Precipitation, MM = Missing Value Source: Averaged Metar Reports

Daily Weather History Graph

Daily Weather History Graph

Search for Another Location

Airport or City:

Trip Planner

Search our weather history database for the weather conditions in past years. The results will help you decide how hot, cold, wet, or windy it might be!

Date:

Astronomy

Sep. 07, 2013 Rise Set
Actual Time 5:39 AM EET 6:16 PM EET
Civil Twilight 5:15 AM EET 6:40 PM EET
Nautical Twilight 4:46 AM EET 7:09 PM EET
Astronomical Twilight 4:17 AM EET 7:38 PM EET
Moon 7:22 AM EET (9/7) 7:15 PM EET (9/7)
Length of Visible Light 13h 25m
Length of Day
12h 36m
Waxing Crescent, 4% of the Moon is Illuminated
Sep 7
Waxing Crescent
Sep 12
First Quarter
Sep 19
Full
Sep 27
Last Quarter
Oct 5
New

Hourly Weather History & Observations

Time (EET) Temp. Heat Index Dew Point Humidity Pressure Visibility Wind Dir Wind Speed Gust Speed Precip Events Conditions
12:00 AM 77.0 °F - 68.0 °F 74% 29.92 in - North 6.9 mph - N/A   Clear
1:00 AM 75.2 °F - 68.0 °F 78% 29.92 in - North 4.6 mph - N/A   Clear
2:00 AM 76 °F - 67 °F 66% 29.92 in 6 mi North 6.9 mph - -  
2:00 AM 75.2 °F - 66.2 °F 73% 29.92 in - North 6.9 mph - N/A   Clear
3:00 AM 75.2 °F - 66.2 °F 73% 29.89 in - North 5.8 mph - N/A   Clear
4:00 AM 73.4 °F - 66.2 °F 78% 29.89 in - North 2.3 mph - N/A   Clear
5:00 AM 73.4 °F - 66.2 °F 78% 29.92 in - North 3.5 mph - N/A   Clear
6:00 AM 73.4 °F - 66.2 °F 78% 29.92 in - North 2.3 mph - N/A   Clear
7:00 AM 77.0 °F - 66.2 °F 69% 29.92 in - North 5.8 mph - N/A   Clear
8:00 AM 79 °F - 67 °F 58% 29.96 in 6 mi NNW 5.8 mph - -   Scattered Clouds
8:00 AM 78.8 °F - 66.2 °F 65% 29.95 in 6.2 mi NNW 5.8 mph - N/A   Partly Cloudy
9:00 AM 80.6 °F 82.3 °F 64.4 °F 58% 29.98 in 6.2 mi NW 9.2 mph - N/A   Partly Cloudy
10:00 AM 82.4 °F 83.9 °F 64.4 °F 54% 29.98 in 6.2 mi NNW 6.9 mph - N/A   Partly Cloudy
11:00 AM 82.4 °F 83.9 °F 64.4 °F 54% 29.98 in - North 6.9 mph - N/A   Clear
12:00 PM 84.2 °F 85.0 °F 62.6 °F 48% 29.95 in - North 6.9 mph - N/A   Clear
1:00 PM 84.2 °F 85.6 °F 64.4 °F 51% 29.95 in - North 13.8 mph - N/A   Clear
2:00 PM 83 °F - 64 °F 43% 29.95 in 6 mi NW 13.8 mph - -  
3:00 PM 84.2 °F 86.6 °F 66.2 °F 55% 29.95 in - North 13.8 mph - N/A   Clear
4:00 PM 82.4 °F 85.4 °F 68.0 °F 62% 29.95 in - NNW 11.5 mph - N/A   Clear
5:00 PM 82.4 °F 84.6 °F 66.2 °F 58% 29.95 in - North 13.8 mph - N/A   Clear
6:00 PM 80.6 °F 82.7 °F 66.2 °F 61% 29.95 in - North 9.2 mph - N/A   Clear
7:00 PM 78.8 °F - 66.2 °F 65% 29.95 in - North 9.2 mph - N/A   Clear
8:00 PM 78 °F - 67 °F 61% 29.95 in 6 mi North 6.9 mph - -  
8:00 PM 78.8 °F - 66.2 °F 65% 29.95 in - North 6.9 mph - N/A   Clear
9:00 PM 78.8 °F - 62.6 °F 57% 29.95 in - North 9.2 mph - N/A   Clear
10:00 PM 77.0 °F - 66.2 °F 69% 29.95 in - NNW 6.9 mph - N/A   Clear
11:00 PM 77.0 °F - 66.2 °F 69% 29.95 in - North 6.9 mph - N/A   Clear